CAPE
4 7 8 9 9 5 5 9 12 12 8 3 5 5 6 8 10 10 8 6 6 5 5 4 4 3 1 1 0 0 nan nan nan nan nan nan nan nan nan nan nan nan nan nan nan nan nan nan nan nan nan nan nan nan nan nan nan nan 4 15 15 27 33 39 39 46 35 20 12 12 9 3 2 2 1 0 nan nan nan nan nan nan nan nan nan nan
2 3 5 7 7 6 3 5 8 8 8 4 4 4 4 4 6 6 7 7 7 6 4 3 3 2 2 2 2 2 nan nan nan nan nan nan nan nan nan nan nan nan nan nan nan nan nan nan nan nan nan nan nan nan nan nan nan nan nan 1 1 7 8 16 16 25 23 15 6 6 3 3 2 2 0 nan nan nan nan nan nan nan nan nan nan nan
3 1 2 5 5 6 3 4 5 5 7 8 5 5 3 3 5 5 6 7 7 7 6 2 2 2 2 2 4 4 1 nan nan nan nan nan nan nan nan nan nan nan nan nan nan nan nan nan nan nan nan nan nan nan nan nan nan nan nan nan nan nan nan 0 0 3 7 6 2 2 3 2 1 1 0 0 0 0 nan nan nan nan nan nan nan nan
5 2 3 3 3 7 5 4 3 3 4 9 6 6 3 3 5 5 8 7 7 5 4 2 2 2 1 2 3 3 1 1 0 0 nan nan nan nan nan nan nan nan nan nan nan nan nan nan nan nan nan nan nan nan nan nan nan nan nan nan nan nan nan nan nan nan nan 0 1 1 1 nan 0 0 1 1 1 1 1 0 0 nan nan nan nan nan
5 4 3 3 3 5 6 5 4 4 3 6 5 5 4 3 2 2 6 7 7 4 3 3 3 1 1 2 3 3 2 1 1 1 0 nan nan nan nan nan nan nan nan nan nan nan nan nan nan nan nan nan nan nan nan nan nan nan nan nan nan nan nan nan nan nan nan nan nan nan 0 0 1 1 2 2 3 3 3 1 1 nan nan nan nan nan
2 7 4 3 3 3 3 2 5 5 5 4 6 6 5 3 2 2 2 2 2 4 3 3 3 3 2 1 5 5 2 2 1 1 1 nan nan nan nan nan nan nan nan nan nan nan nan nan nan nan nan nan nan nan nan nan nan nan nan nan nan nan nan nan nan nan nan nan nan nan 1 1 1 1 2 2 3 3 3 0 0 nan nan nan nan nan
1 5 4 3 3 3 1 0 1 1 2 2 5 5 7 3 2 2 2 2 2 2 2 2 2 3 4 3 5 5 3 2 1 1 1 1 nan nan nan nan nan nan nan nan nan nan nan nan nan nan nan nan nan nan nan nan nan nan nan nan nan nan nan nan nan nan nan nan nan nan 0 1 1 1 2 3 3 3 2 0 0 nan nan nan nan nan
1 2 4 3 3 2 1 0 1 1 2 2 3 3 4 3 1 1 3 2 2 1 1 0 0 0 2 1 2 2 2 0 0 0 1 1 2 2 1 0 0 nan nan nan nan nan nan nan nan nan nan nan nan nan nan nan nan nan nan nan nan nan nan nan nan nan nan 0 1 1 1 2 3 3 4 4 3 3 1 nan nan nan nan nan nan nan
5 1 2 6 6 3 1 0 2 2 6 2 2 2 3 5 2 2 2 2 2 1 1 1 1 0 0 1 1 1 4 5 2 2 2 0 1 1 4 2 2 4 nan nan nan nan nan nan nan nan nan nan nan nan nan nan nan nan nan nan nan nan nan nan nan nan nan 1 1 1 2 3 4 4 5 3 2 2 0 nan nan nan nan nan nan nan
9 4 3 3 3 4 3 1 3 3 7 5 3 3 4 5 2 2 2 1 1 0 1 2 2 1 0 0 1 1 2 4 9 9 10 0 6 6 1 1 1 3 3 1 1 0 nan nan nan nan nan nan nan nan nan nan nan nan nan nan nan nan nan nan nan 0 1 3 3 3 3 3 3 3 4 3 1 1 0 nan nan nan nan nan nan nan
4 5 4 3 3 3 4 5 5 5 6 1 1 1 2 6 5 5 2 2 2 1 1 2 2 1 0 0 1 1 1 0 0 0 2 0 nan nan 0 0 0 1 3 5 5 3 1 nan nan nan nan nan nan nan nan nan nan nan nan nan nan nan nan 0 0 1 3 3 4 4 4 4 4 4 5 6 3 3 0 nan nan nan nan nan nan nan
3 3 3 3 3 3 3 3 3 3 2 1 1 1 1 5 9 9 4 4 4 3 2 1 1 1 1 nan 1 1 0 0 nan nan nan nan nan nan nan nan nan nan 0 3 3 3 4 1 1 nan nan nan nan nan nan nan nan nan nan nan nan 0 1 1 1 2 2 4 4 4 4 4 5 5 8 8 5 5 1 nan nan nan nan nan nan nan
3 4 3 3 3 3 3 2 1 1 1 2 2 2 2 2 6 6 8 5 5 4 2 1 1 0 0 0 0 0 1 1 0 0 nan nan nan nan nan nan nan nan nan nan nan 1 6 5 5 3 1 nan nan nan nan nan nan nan nan 0 0 0 1 1 1 2 3 4 5 5 6 6 8 8 8 7 4 4 2 nan nan nan nan nan nan nan
3 3 3 4 4 3 3 3 2 2 2 3 2 2 4 2 2 2 4 4 4 5 2 1 1 0 0 1 0 0 1 1 nan nan nan 0 nan nan nan nan nan nan nan nan nan nan 3 3 3 1 3 4 3 3 2 3 3 2 1 1 1 2 2 3 3 4 5 6 7 7 8 8 9 9 8 6 3 3 2 nan nan nan nan nan nan nan
3 4 4 4 4 4 4 4 2 2 2 1 3 3 2 1 1 1 2 2 2 3 2 1 1 1 0 0 0 0 0 nan nan nan 0 nan 0 0 0 nan nan nan nan nan nan nan 2 1 1 0 1 4 3 3 4 6 6 6 5 5 5 4 4 5 5 6 7 8 8 8 10 10 9 9 6 4 3 3 2 nan nan nan nan nan nan nan
5 4 5 5 5 4 4 4 4 4 2 2 3 3 3 1 1 1 1 1 1 nan 0 1 1 1 nan nan 0 0 1 nan nan nan 0 nan 0 0 0 0 0 nan nan nan nan nan nan nan nan 0 1 4 6 6 4 9 9 9 8 7 7 7 6 7 7 7 7 9 11 11 11 10 8 8 6 4 3 3 3 nan nan nan nan nan nan nan
5 6 5 5 5 4 4 4 3 3 2 1 2 2 2 2 1 1 1 0 0 nan nan 0 0 1 0 nan nan nan 1 0 0 0 0 0 0 0 1 0 0 nan nan nan nan nan nan nan nan nan 1 6 6 6 6 8 8 11 10 10 10 9 9 8 8 8 11 12 12 12 10 9 7 7 5 3 3 3 4 4 4 0 nan nan nan 0
6 5 6 6 6 6 5 3 3 3 4 3 2 2 2 2 1 1 0 nan nan nan nan 0 0 1 1 0 nan nan 1 1 0 0 0 0 0 0 0 0 0 nan nan nan nan nan nan nan nan 0 2 8 7 7 7 8 8 10 12 12 12 11 10 10 10 10 10 11 12 12 10 8 6 6 4 4 4 4 5 3 3 1 0 0 0 0
6 5 6 7 7 7 5 3 3 3 2 3 2 2 1 1 0 0 0 nan nan 0 0 1 1 2 1 0 nan nan 1 3 1 1 0 0 0 0 nan 0 0 nan nan nan nan nan nan 2 2 9 12 10 8 8 9 9 9 10 11 11 11 12 12 12 12 11 12 13 13 13 10 9 6 6 5 6 6 6 5 3 3 1 0 0 0 0
5 5 5 7 7 5 4 4 3 3 3 3 3 3 1 0 0 0 0 0 0 0 0 1 1 2 2 1 0 0 1 1 0 0 0 0 nan nan nan 0 0 nan nan nan nan nan nan 4 4 7 10 11 12 12 11 10 10 11 11 11 11 11 11 12 12 12 12 12 12 12 11 10 9 9 9 8 7 7 6 3 3 1 0 0 0 0
5 6 7 8 8 5 3 3 3 3 4 6 3 3 1 1 0 0 0 0 0 0 0 1 1 2 2 2 1 1 0 0 0 0 0 nan 0 0 0 0 0 nan nan nan nan nan nan nan nan 6 14 14 13 13 13 12 12 13 13 12 12 11 10 11 11 11 12 12 12 12 10 10 10 10 10 10 9 9 5 3 3 1 0 0 0 0
5 5 7 8 8 6 4 4 6 6 5 7 2 2 1 1 1 1 1 1 1 1 1 2 2 2 1 1 1 1 nan 0 0 0 0 nan nan nan nan 0 0 nan nan nan nan nan nan nan nan 0 19 20 16 16 15 14 14 14 13 13 13 12 13 12 12 12 14 14 13 13 13 12 11 11 12 11 10 10 3 2 2 0 0 0 0 0
8 7 8 9 9 6 6 5 6 6 5 4 2 2 2 1 1 1 1 1 1 1 1 2 2 2 0 0 nan nan nan nan nan nan 0 nan 0 0 0 nan nan nan nan nan nan 0 nan nan nan nan 18 22 18 18 17 15 15 14 13 12 12 13 13 13 13 13 14 15 13 13 13 12 12 12 12 9 5 5 2 1 1 0 0 0 0 0
10 11 11 11 11 13 9 6 5 5 4 2 3 3 5 1 0 0 1 1 1 1 1 1 1 0 0 nan nan nan nan nan nan nan nan 0 1 1 0 0 0 0 nan nan nan nan nan nan nan nan 1 13 17 17 16 15 15 14 13 12 12 12 12 13 13 13 13 14 13 13 11 10 10 10 8 5 2 2 0 0 0 nan nan 0 0 0
13 14 13 14 14 18 11 8 6 6 4 3 2 2 3 1 1 1 1 2 2 1 0 nan nan nan 0 0 0 0 nan nan nan nan nan 1 1 1 1 1 1 0 nan nan nan nan nan nan nan nan 0 1 11 11 14 15 15 15 13 12 12 13 13 12 12 12 12 12 10 10 8 6 4 4 3 1 0 0 0 nan nan nan nan 0 0 1
12 12 11 10 10 14 13 12 9 9 7 4 4 4 3 2 3 3 2 1 1 1 nan 0 0 1 1 1 1 1 0 nan nan nan nan 1 2 2 1 2 2 1 1 0 0 nan nan nan nan nan 0 1 14 14 11 14 14 14 14 15 15 13 11 10 10 9 10 10 8 8 6 4 2 2 1 0 0 0 0 nan nan nan nan nan nan 0
7 7 6 7 7 8 9 10 10 10 7 5 4 4 6 8 3 3 1 1 1 2 0 1 1 1 1 1 2 2 1 nan nan nan nan nan 1 1 2 2 2 1 1 1 1 1 1 0 0 0 0 0 5 5 10 9 9 9 13 13 13 12 8 7 7 8 8 9 8 8 7 4 1 1 1 1 0 0 0 nan nan nan nan nan nan 0
4 4 5 5 5 5 5 7 7 7 6 4 1 1 3 4 1 1 2 1 1 1 0 0 0 1 1 1 1 1 1 0 0 0 0 nan 1 1 1 3 3 2 1 0 0 2 3 1 1 1 0 0 1 1 4 4 4 5 6 9 9 9 7 6 6 6 5 4 3 3 3 3 2 2 2 1 1 1 0 nan nan nan nan nan nan 2
2 3 3 3 3 3 3 4 4 4 5 3 1 1 1 1 1 1 2 3 3 0 nan 0 0 0 1 1 1 1 0 0 0 0 0 nan 1 1 2 3 3 2 1 1 1 1 1 1 1 1 0 1 1 1 1 2 2 1 0 0 0 2 2 3 3 2 2 3 4 4 3 3 3 3 2 1 1 1 0 nan nan nan nan nan nan 1
1 0 1 2 2 2 3 3 3 3 3 3 2 2 1 2 3 3 3 4 4 0 0 0 0 0 1 1 0 0 0 0 nan nan nan nan 1 1 2 2 2 2 2 1 1 0 0 1 1 1 1 2 1 1 0 1 1 0 nan nan nan nan nan nan nan 1 3 3 3 3 3 3 3 3 2 2 1 1 1 nan nan nan nan 0 0 1
3 2 2 1 1 2 3 3 2 2 2 3 2 2 2 1 2 2 3 3 3 1 1 0 0 0 1 1 1 1 0 0 nan nan nan nan 1 1 2 2 2 1 2 1 1 0 0 1 1 2 1 1 1 1 1 nan nan nan nan nan nan nan nan nan nan nan 0 2 2 2 2 2 3 3 2 2 2 2 1 0 0 0 0 1 1 2
4 3 2 2 2 2 2 2 2 2 2 2 2 2 3 2 2 2 2 2 2 3 3 2 2 2 1 1 1 1 2 1 nan nan nan nan 1 1 2 1 1 1 0 nan nan 2 1 1 1 2 1 1 0 0 nan nan nan nan nan nan nan nan nan nan nan nan nan nan nan nan nan 0 1 1 2 3 3 3 2 1 1 2 3 3 3 2
3 3 3 3 3 2 2 2 1 1 2 2 2 2 2 2 3 3 2 2 2 2 2 2 2 2 1 0 1 1 2 1 nan nan 0 nan 0 0 1 1 1 0 nan nan nan nan nan 0 0 0 nan 0 0 0 nan nan nan nan nan nan nan nan nan nan nan nan nan nan nan nan nan nan 0 0 1 3 3 3 3 2 2 2 4 4 4 2
6 3 4 3 3 3 2 2 2 2 2 2 3 3 2 2 2 2 2 2 2 3 2 2 2 2 2 1 1 1 2 1 0 0 0 nan 0 0 1 1 1 0 nan nan nan nan nan nan nan nan nan nan nan nan nan nan nan nan nan nan nan nan nan nan nan nan nan nan nan nan nan nan nan nan 0 1 2 2 3 3 3 3 3 4 4 4
13 8 5 4 4 3 3 3 3 3 2 2 2 2 3 2 2 2 2 2 2 3 3 3 3 3 2 3 2 2 2 2 1 1 0 nan 0 0 0 1 1 0 nan nan nan nan nan nan nan nan nan nan nan nan nan nan nan nan nan nan nan nan nan nan nan nan nan nan nan nan nan nan nan nan nan 1 2 2 3 2 2 1 2 4 4 4
12 13 11 4 4 3 3 3 3 3 3 2 1 1 2 2 3 3 2 2 2 3 4 3 3 2 2 3 3 3 3 2 2 2 0 0 0 0 0 0 0 0 nan nan nan nan nan nan nan nan nan nan nan nan nan nan nan nan nan nan nan nan nan nan nan nan nan nan nan nan nan nan nan nan nan 0 1 1 1 1 1 0 3 4 4 2
10 13 10 3 3 3 3 3 3 3 4 2 2 2 2 2 3 3 2 2 2 2 3 4 4 3 4 3 3 3 4 4 5 5 2 0 0 0 0 0 0 0 nan nan nan nan nan nan nan nan nan nan nan nan nan nan nan nan nan nan nan nan nan nan nan nan nan nan nan nan nan nan nan nan nan nan nan nan nan nan nan nan 1 2 2 1
10 10 4 3 3 3 3 3 2 2 4 3 2 2 2 3 2 2 3 2 2 1 3 3 3 3 5 6 5 5 5 6 9 9 5 0 1 1 1 1 1 0 0 0 0 nan nan nan nan nan nan nan nan nan nan nan nan nan nan nan nan nan nan nan nan nan nan nan nan nan nan nan nan nan nan nan 1 1 1 4 4 2 1 1 1 nan
12 6 3 2 2 3 2 3 2 2 2 2 2 2 3 2 1 1 2 2 2 2 3 3 3 3 nan nan 7 7 6 7 7 7 0 nan nan nan 3 2 2 1 0 1 1 3 3 0 0 nan nan nan nan nan nan nan nan nan nan nan nan nan nan nan nan nan nan nan 0 0 nan nan nan nan 0 nan 0 0 0 1 1 2 2 3 3 3
9 4 3 3 3 3 2 2 2 2 2 3 4 4 3 4 2 2 1 2 2 2 3 3 3 3 2 4 5 5 4 4 2 2 0 nan nan nan 3 2 2 1 0 1 1 2 5 3 3 1 nan nan nan nan nan nan nan nan nan nan nan nan nan nan nan nan nan nan nan nan nan nan nan nan 0 0 0 0 0 0 0 1 1 1 1 3
4 4 3 2 2 4 3 2 3 3 2 2 2 2 2 2 2 2 3 3 3 2 1 2 2 1 2 2 3 3 3 0 1 1 0 1 nan nan 2 2 2 3 0 1 1 2 4 4 4 1 nan nan nan nan nan nan nan nan nan nan nan nan nan nan nan nan nan nan nan nan nan nan 0 0 0 0 0 0 0 1 1 2 1 2 2 4
2 3 2 2 2 3 3 4 3 3 3 3 2 2 2 2 2 2 2 3 3 2 1 1 1 1 1 1 2 2 2 2 2 2 0 0 nan nan 2 3 3 3 5 3 3 3 4 4 4 2 0 nan nan nan nan nan nan nan nan nan nan nan nan nan nan nan nan nan nan nan nan nan nan nan 0 0 0 0 0 1 1 2 1 2 2 4
2 2 2 2 2 3 3 3 2 2 3 3 3 3 3 4 3 3 3 3 3 2 1 1 1 1 nan nan 0 0 2 3 3 3 2 nan nan nan 3 2 2 2 4 3 3 4 3 3 3 3 1 0 nan nan nan nan nan nan nan nan nan nan nan nan nan nan nan nan nan nan nan nan nan nan nan 0 nan nan nan 0 0 2 2 2 2 5
2 2 2 2 2 3 3 3 3 3 2 3 4 4 4 6 4 4 3 3 3 2 1 1 1 1 nan nan nan nan 0 2 3 3 3 3 2 2 2 2 2 2 4 4 4 4 3 2 2 1 1 3 1 1 nan nan nan nan nan nan nan 0 0 0 0 nan 0 0 0 0 nan nan nan nan nan 0 nan nan nan 0 0 1 2 2 2 5
3 3 2 2 2 2 3 3 3 3 3 3 3 3 4 5 5 5 4 4 4 2 1 1 1 1 nan nan nan nan nan 1 2 2 3 4 5 5 3 3 3 3 4 4 4 3 4 2 2 1 1 4 4 4 0 nan nan nan 0 0 0 nan nan nan nan nan 0 0 0 0 nan nan nan nan nan 2 1 1 0 0 0 1 1 2 2 6
4 3 3 2 2 3 2 2 3 3 4 3 3 3 4 6 5 5 4 4 4 3 1 1 1 1 0 nan nan nan nan nan 0 0 2 3 4 4 5 5 5 6 6 5 5 3 4 5 5 3 2 3 4 4 3 nan nan nan nan 0 0 nan nan nan nan nan nan nan nan nan nan nan 0 0 4 2 2 2 0 1 1 1 1 2 2 4
5 4 3 3 3 3 3 3 3 3 3 3 3 3 4 5 5 5 5 5 5 4 4 3 3 1 nan nan nan nan nan nan nan nan 0 3 4 4 4 6 6 7 6 5 5 4 4 3 3 6 5 3 2 2 0 0 0 0 nan nan nan nan 1 0 0 nan nan nan nan nan nan nan 1 1 3 2 2 2 1 1 1 1 1 1 1 5
4 4 4 3 3 4 3 3 3 3 3 3 4 4 3 5 4 4 4 5 5 4 4 3 3 0 nan nan nan nan nan nan 0 0 0 1 4 4 5 6 6 6 6 5 5 4 4 4 4 4 6 5 2 2 0 0 0 0 nan nan nan 0 1 0 0 nan nan nan 0 0 nan 0 2 2 3 2 2 2 1 1 1 1 1 1 1 6
6 5 4 4 4 4 4 4 3 3 2 2 2 2 3 3 3 3 4 4 4 3 4 1 1 0 0 nan nan nan nan nan nan nan 0 1 2 2 4 6 6 6 5 5 5 5 6 6 6 5 5 7 5 5 1 0 0 0 0 1 1 1 1 0 0 nan nan 0 0 0 0 0 0 0 1 3 2 2 2 1 1 1 2 2 2 6
6 6 5 4 4 4 4 4 3 3 3 3 1 1 3 4 4 4 3 3 3 3 3 1 1 0 0 nan nan nan nan nan 0 0 0 1 4 4 4 5 5 4 3 3 3 4 4 3 3 3 3 4 5 5 2 0 0 0 0 1 1 0 0 0 0 0 0 0 0 0 0 0 nan nan nan 3 3 3 2 2 2 1 2 6 6 9
5 6 6 6 6 5 5 5 4 4 4 4 3 3 4 4 4 4 4 4 4 3 3 2 2 0 nan nan nan nan nan nan 0 0 0 3 3 3 3 4 4 3 2 1 1 0 0 1 1 2 2 2 3 3 1 0 0 0 0 nan nan nan 0 0 0 0 0 1 0 0 0 0 nan nan nan 5 3 3 1 2 2 2 2 5 5 8
CIN
-2 -1 -1 -2 -2 -1 -1 -0 -0 -0 -1 -3 -1 -1 -1 -0 -0 -0 -0 -0 -0 -0 -0 -0 -0 -0 -1 -0 -0 -0 nan nan nan nan nan nan nan nan nan nan nan nan nan nan nan nan nan nan nan nan nan nan nan nan nan nan nan nan -16 -16 -16 -14 -0 -0 -0 -0 -0 -0 -0 -0 -0 -0 -0 -0 -0 -0 nan nan nan nan nan nan nan nan nan nan
-2 -1 -2 -0 -0 -0 -1 -1 -0 -0 -1 -2 -2 -2 -1 -1 -1 -1 -1 -0 -0 -0 -0 -0 -0 -0 -0 -0 -0 -0 nan nan nan nan nan nan nan nan nan nan nan nan nan nan nan nan nan nan nan nan nan nan nan nan nan nan nan nan nan -35 -35 -28 -14 -1 -1 -0 -0 -0 -0 -0 -0 -0 -0 -0 -0 nan nan nan nan nan nan nan nan nan nan nan
-1 -0 -1 -0 -0 -0 -1 -0 -1 -1 -1 -1 -2 -2 -1 -1 -0 -0 -1 -0 -0 -0 -0 -1 -1 -1 -0 -0 -0 -0 -0 nan nan nan nan nan nan nan nan nan nan nan nan nan nan nan nan nan nan nan nan nan nan nan nan nan nan nan nan nan nan nan nan -36 -36 -1 -1 -0 -0 -0 -0 -0 -0 -0 -0 -0 -0 -0 nan nan nan nan nan nan nan nan
-1 -0 -0 -1 -1 -0 -0 -1 -2 -2 -2 -2 -2 -2 -2 -1 -0 -0 -0 -0 -0 -1 -1 -1 -1 -1 -1 -0 -0 -0 -0 -0 -0 -0 nan nan nan nan nan nan nan nan nan nan nan nan nan nan nan nan nan nan nan nan nan nan nan nan nan nan nan nan nan nan nan nan nan -3 -1 -1 -0 nan -0 -0 -0 -0 -0 -0 -0 -0 -0 nan nan nan nan nan
-1 -0 -1 -1 -1 -0 -1 -1 -1 -1 -2 -2 -3 -3 -0 -1 -1 -1 -0 -0 -0 -1 -1 -1 -1 -1 -1 -1 -0 -0 -0 -0 -0 -0 -0 nan nan nan nan nan nan nan nan nan nan nan nan nan nan nan nan nan nan nan nan nan nan nan nan nan nan nan nan nan nan nan nan nan nan nan -0 -0 -0 -0 -0 -0 -0 -0 -0 -0 -0 nan nan nan nan nan
-0 -0 -0 -0 -0 -1 -3 -3 -1 -1 -0 -0 -2 -2 -2 -2 -2 -2 -2 -1 -1 -1 -1 -1 -1 -1 -1 -0 -0 -0 -0 -0 -0 -0 -0 nan nan nan nan nan nan nan nan nan nan nan nan nan nan nan nan nan nan nan nan nan nan nan nan nan nan nan nan nan nan nan nan nan nan nan -0 -0 -0 -0 -0 -0 -0 -0 -0 -0 -0 nan nan nan nan nan
-0 -1 -1 -0 -0 -2 -4 -6 -3 -3 -0 -0 -0 -0 -2 -3 -2 -2 -2 -1 -1 -1 -1 -2 -2 -1 -0 -0 -0 -0 -0 -0 -0 -0 -0 -0 nan nan nan nan nan nan nan nan nan nan nan nan nan nan nan nan nan nan nan nan nan nan nan nan nan nan nan nan nan nan nan nan nan nan -0 -0 -0 -0 -0 -0 -0 -0 -0 -0 -0 nan nan nan nan nan
-0 -0 -0 -0 -0 -0 -0 -0 -2 -2 -3 -1 -0 -0 -0 -0 -2 -2 -3 -2 -2 -2 -2 -3 -3 -3 -1 -1 -1 -1 -1 -2 -2 -2 -0 -0 -0 -0 -0 -0 -0 nan nan nan nan nan nan nan nan nan nan nan nan nan nan nan nan nan nan nan nan nan nan nan nan nan nan -0 -0 -0 -0 -0 -0 -0 -0 -0 -0 -0 -0 nan nan nan nan nan nan nan
-0 -0 -0 -1 -1 -1 -0 -0 -0 -0 -1 -2 -1 -1 -0 -0 -0 -0 -0 -0 -0 -2 -1 -1 -1 -2 -2 -2 -1 -1 -0 -0 -1 -1 -1 -2 -1 -1 -0 -0 -0 -0 nan nan nan nan nan nan nan nan nan nan nan nan nan nan nan nan nan nan nan nan nan nan nan nan nan -0 -0 -0 -0 -0 -0 -0 -0 -0 -0 -0 -1 nan nan nan nan nan nan nan
-0 -0 -0 -0 -0 -0 -0 -0 -0 -0 -0 -1 -3 -3 -0 -0 -0 -0 -0 -0 -0 -1 -1 -1 -1 -1 -1 -2 -2 -2 -1 -0 -0 -0 -0 -1 -0 -0 -0 -0 -0 -0 -0 -0 -0 -0 nan nan nan nan nan nan nan nan nan nan nan nan nan nan nan nan nan nan nan -0 -0 -0 -0 -0 -0 -0 -0 -0 -0 -0 -1 -1 -4 nan nan nan nan nan nan nan
-0 -0 -0 -0 -0 -0 -0 -0 -0 -0 -0 -0 -0 -0 -0 -0 -0 -0 -0 -0 -0 -0 -0 -1 -1 -1 -1 -2 -2 -2 -2 -2 -1 -1 -0 -0 nan nan -1 -1 -1 -0 -0 -0 -0 -0 -0 nan nan nan nan nan nan nan nan nan nan nan nan nan nan nan nan -0 -0 -0 -0 -0 -0 -0 -0 -0 -0 -0 -0 -0 -0 -0 -2 nan nan nan nan nan nan nan
-0 -0 -0 -0 -0 -0 -0 -0 -0 -0 -0 -0 -0 -0 -0 -0 -0 -0 -0 -0 -0 -0 -0 -1 -1 -1 -1 nan -1 -1 -3 -3 nan nan nan nan nan nan nan nan nan nan -1 -0 -0 -0 -0 -0 -0 nan nan nan nan nan nan nan nan nan nan nan nan -0 -0 -0 -0 -0 -0 -0 -0 -0 -0 -0 -0 -0 -0 -0 -0 -0 -0 nan nan nan nan nan nan nan
-0 -0 -0 -0 -0 -0 -0 -0 -0 -0 -0 -0 -0 -0 -0 -0 -1 -1 -0 -0 -0 -0 -1 -1 -1 -2 -1 -1 -1 -1 -2 -2 -2 -2 nan nan nan nan nan nan nan nan nan nan nan -1 -0 -0 -0 -0 -0 nan nan nan nan nan nan nan nan -0 -0 -0 -0 -0 -0 -0 -0 -0 -0 -0 -0 -0 -0 -0 -0 -0 -0 -0 -0 nan nan nan nan nan nan nan
-0 -0 -0 -0 -0 -0 -0 -0 -0 -0 -0 -0 -0 -0 -0 -1 -0 -0 -0 -0 -0 -1 -2 -0 -0 -1 -2 -1 -1 -1 -1 -2 nan nan nan -1 nan nan nan nan nan nan nan nan nan nan -0 -0 -0 -0 -0 -0 -0 -0 -0 -0 -0 -0 -0 -0 -0 -0 -0 -0 -0 -0 -0 -0 -0 -0 -0 -0 -0 -0 -0 -0 -0 -0 -0 nan nan nan nan nan nan nan
-0 -0 -0 -0 -0 -0 -0 -0 -0 -0 -0 -0 -0 -0 -0 -0 -0 -0 -0 -0 -0 -1 -2 -1 -1 -0 -2 -2 -1 -1 -2 nan nan nan -1 nan -1 -1 -2 nan nan nan nan nan nan nan -0 -1 -1 -1 -0 -0 -0 -0 -0 -0 -0 -0 -0 -0 -0 -0 -0 -0 -0 -0 -0 -0 -0 -0 -0 -0 -0 -0 -0 -0 -0 -0 -0 nan nan nan nan nan nan nan
-0 -0 -0 -0 -0 -0 -0 -0 -0 -0 -0 -0 -0 -0 -0 -0 -0 -0 -0 -0 -0 nan -0 -0 -0 -0 nan nan -1 -1 -1 nan nan nan -1 nan -1 -1 -2 -3 -3 nan nan nan nan nan nan nan nan -1 -0 -0 -0 -0 -0 -0 -0 -0 -0 -0 -0 -0 -0 -0 -0 -0 -0 -0 -0 -0 -0 -0 -0 -0 -0 -0 -0 -0 -0 nan nan nan nan nan nan nan
-0 -0 -0 -0 -0 -0 -0 -0 -0 -0 -0 -0 -0 -0 -0 -0 -0 -0 -0 -0 -0 nan nan -0 -0 -0 -0 nan nan nan -1 -2 -0 -0 -0 -1 -1 -1 -1 -2 -2 nan nan nan nan nan nan nan nan nan -0 -0 -0 -0 -0 -0 -0 -0 -0 -0 -0 -0 -0 -0 -0 -0 -0 -0 -0 -0 -0 -0 -0 -0 -0 -0 -0 -0 -0 -0 -0 -0 nan nan nan -0
-0 -0 -0 -0 -0 -0 -0 -0 -0 -0 -0 -0 -0 -0 -0 -0 -0 -0 -0 nan nan nan nan -0 -0 -0 -0 -0 nan nan -1 -1 -0 -0 -0 -0 -1 -1 -1 -2 -2 nan nan nan nan nan nan nan nan -0 -0 -0 -0 -0 -0 -0 -0 -0 -0 -0 -0 -0 -0 -0 -0 -0 -0 -0 -0 -0 -0 -0 -0 -0 -0 -0 -0 -0 -0 -0 -0 -0 -0 -0 -0 -0
-0 -0 -0 -0 -0 -0 -0 -0 -0 -0 -0 -0 -0 -0 -0 -0 -0 -0 -0 nan nan -0 -0 -0 -0 -0 -0 -0 nan nan -1 -2 -0 -0 -0 -0 -1 -1 nan -2 -2 nan nan nan nan nan nan -0 -0 -0 -0 -0 -0 -0 -0 -0 -0 -0 -0 -0 -0 -0 -0 -0 -0 -0 -0 -0 -0 -0 -0 -0 -0 -0 -0 -0 -0 -0 -0 -0 -0 -0 -0 -0 -0 -0
-0 -0 -0 -0 -0 -0 -0 -0 -0 -0 -0 -0 -0 -0 -0 -0 -0 -0 -0 -0 -0 -0 -0 -0 -0 -0 -0 -0 -0 -0 -0 -2 -2 -2 -1 -0 nan nan nan -2 -2 nan nan nan nan nan nan -0 -0 -0 -0 -0 -0 -0 -0 -0 -0 -0 -0 -0 -0 -0 -0 -0 -0 -0 -0 -0 -0 -0 -0 -0 -0 -0 -0 -0 -0 -0 -0 -0 -0 -0 -0 -0 -0 -0
-0 -0 -0 -0 -0 -0 -0 -0 -0 -0 -0 -0 -0 -0 -0 -0 -0 -0 -0 -0 -0 -0 -0 -0 -0 -0 -0 -0 -0 -0 -1 -1 -2 -2 -1 nan -1 -1 -1 -2 -2 nan nan nan nan nan nan nan nan -0 -0 -0 -0 -0 -0 -0 -0 -0 -0 -0 -0 -0 -0 -0 -0 -0 -0 -0 -0 -0 -0 -0 -0 -0 -0 -0 -0 -0 -0 -0 -0 -0 -0 -0 -0 -0
-0 -0 -0 -0 -0 -0 -0 -0 -0 -0 -0 -0 -0 -0 -0 -0 -0 -0 -0 -0 -0 -0 -0 -0 -0 -0 -0 -0 -0 -0 nan -0 -0 -0 -1 nan nan nan nan -2 -2 nan nan nan nan nan nan nan nan -0 -0 -0 -0 -0 -0 -0 -0 -0 -0 -0 -0 -0 -0 -0 -0 -0 -0 -0 -0 -0 -0 -0 -0 -0 -0 -0 -0 -0 -0 -0 -0 -0 -0 -0 -0 -0
-0 -0 -0 -0 -0 -0 -0 -0 -0 -0 -0 -0 -0 -0 -0 -0 -0 -0 -0 -0 -0 -0 -0 -0 -0 -0 -0 -0 nan nan nan nan nan nan -0 nan -0 -0 -1 nan nan nan nan nan nan -1 nan nan nan nan -0 -0 -0 -0 -0 -0 -0 -0 -0 -0 -0 -0 -0 -0 -0 -0 -0 -0 -0 -0 -0 -0 -0 -0 -0 -0 -0 -0 -0 -0 -0 -0 -0 -0 -0 -0
-0 -0 -0 -0 -0 -0 -0 -0 -0 -0 -0 -0 -0 -0 -0 -0 -0 -0 -0 -0 -0 -0 -0 -0 -0 -0 -0 nan nan nan nan nan nan nan nan -0 -0 -0 -0 -1 -1 -1 nan nan nan nan nan nan nan nan -0 -0 -0 -0 -0 -0 -0 -0 -0 -0 -0 -0 -0 -0 -0 -0 -0 -0 -0 -0 -0 -0 -0 -0 -0 -0 -0 -0 -0 -0 -0 nan nan -0 -0 -0
-0 -0 -0 -0 -0 -0 -0 -0 -0 -0 -0 -0 -0 -0 -0 -0 -0 -0 -0 -0 -0 -0 -0 nan nan nan -0 -0 -0 -0 nan nan nan nan nan -0 -0 -0 -0 -1 -1 -0 nan nan nan nan nan nan nan nan -0 -0 -0 -0 -0 -0 -0 -0 -0 -0 -0 -0 -0 -0 -0 -0 -0 -0 -0 -0 -0 -0 -0 -0 -0 -0 -0 -0 -0 nan nan nan nan -0 -0 -0
-0 -0 -0 -0 -0 -0 -0 -0 -0 -0 -0 -0 -0 -0 -0 -0 -0 -0 -0 -0 -0 -0 nan -0 -0 -0 -0 -0 -0 -0 -0 nan nan nan nan -0 -0 -0 -0 -0 -0 -0 -0 -0 -0 nan nan nan nan nan -0 -0 -0 -0 -0 -0 -0 -0 -0 -0 -0 -0 -0 -0 -0 -0 -0 -0 -0 -0 -0 -0 -0 -0 -0 -0 -0 -0 -0 nan nan nan nan nan nan -0
-0 -0 -0 -0 -0 -0 -0 -0 -0 -0 -0 -0 -0 -0 -0 -0 -0 -0 -0 -0 -0 -0 -0 -0 -0 -0 -0 -0 -0 -0 -0 nan nan nan nan nan -0 -0 -0 -0 -0 -0 -0 -0 -0 -0 -0 -0 -0 -0 -0 -0 -0 -0 -0 -0 -0 -0 -0 -0 -0 -0 -0 -0 -0 -0 -0 -0 -0 -0 -0 -0 -0 -0 -0 -0 -0 -0 -0 nan nan nan nan nan nan -0
-0 -0 -0 -0 -0 -0 -0 -0 -0 -0 -0 -0 -0 -0 -0 -0 -0 -0 -0 -0 -0 -0 -0 -0 -0 -0 -0 -0 -0 -0 -0 -0 -0 -0 -0 nan -0 -0 -0 -0 -0 -0 -0 -0 -0 -0 -0 -0 -0 -0 -0 -0 -0 -0 -0 -0 -0 -0 -0 -0 -0 -0 -0 -1 -1 -1 -1 -0 -0 -0 -0 -0 -0 -0 -0 -0 -0 -0 -0 nan nan nan nan nan nan -0
-0 -0 -0 -0 -0 -0 -0 -0 -0 -0 -0 -0 -0 -0 -0 -0 -0 -0 -0 -0 -0 -0 nan -0 -0 -0 -0 -0 -0 -0 -0 -0 -0 -0 -0 nan -0 -0 -0 -0 -0 -0 -0 -0 -0 -0 -0 -0 -0 -0 -0 -0 -0 -0 -0 -0 -0 -0 -0 -0 -0 -0 -0 -0 -0 -0 -0 -0 -0 -0 -0 -0 -0 -0 -0 -0 -0 -0 -0 nan nan nan nan nan nan -0
-0 -0 -0 -0 -0 -0 -0 -0 -0 -0 -0 -0 -0 -0 -0 -0 -0 -0 -0 -0 -0 -0 -0 -0 -0 -0 -0 -0 -0 -0 -0 -0 nan nan nan nan -0 -0 -0 -0 -0 -0 -0 -0 -0 -0 -0 -0 -0 -0 -0 -0 -0 -0 -0 -0 -0 -0 nan nan nan nan nan nan nan -0 -0 -0 -0 -0 -0 -0 -0 -0 -0 -0 -0 -0 -0 nan nan nan nan -0 -0 -0
-0 -0 -0 -0 -0 -0 -0 -0 -0 -0 -0 -0 -0 -0 -0 -0 -0 -0 -0 -0 -0 -0 -0 -0 -0 -0 -0 -0 -0 -0 -0 -0 nan nan nan nan -0 -0 -0 -0 -0 -0 -0 -0 -0 -0 -0 -0 -0 -0 -0 -0 -0 -0 -0 nan nan nan nan nan nan nan nan nan nan nan -0 -0 -0 -0 -0 -0 -0 -0 -0 -0 -0 -0 -0 -0 -0 -0 -0 -0 -0 -0
-0 -0 -0 -0 -0 -0 -0 -0 -0 -0 -0 -0 -0 -0 -0 -0 -0 -0 -0 -0 -0 -0 -0 -0 -0 -0 -0 -0 -0 -0 -0 -0 nan nan nan nan -0 -0 -0 -0 -0 -0 -0 nan nan -0 -0 -0 -0 -0 -0 -0 -0 -0 nan nan nan nan nan nan nan nan nan nan nan nan nan nan nan nan nan -0 -0 -0 -0 -0 -0 -0 -0 -0 -0 -0 -0 -0 -0 -0
-0 -0 -0 -0 -0 -0 -0 -0 -0 -0 -0 -0 -0 -0 -0 -0 -0 -0 -0 -0 -0 -0 -0 -0 -0 -0 -0 -0 -0 -0 -0 -0 nan nan -0 nan -0 -0 -0 -0 -0 -0 nan nan nan nan nan -0 -0 -0 nan -0 -0 -0 nan nan nan nan nan nan nan nan nan nan nan nan nan nan nan nan nan nan -0 -0 -0 -0 -0 -0 -0 -0 -0 -0 -0 -0 -0 -0
-0 -0 -0 -0 -0 -0 -0 -0 -0 -0 -0 -0 -0 -0 -0 -0 -0 -0 -0 -0 -0 -0 -0 -0 -0 -0 -0 -0 -0 -0 -0 -0 -0 -0 -0 nan -0 -0 -0 -0 -0 -0 nan nan nan nan nan nan nan nan nan nan nan nan nan nan nan nan nan nan nan nan nan nan nan nan nan nan nan nan nan nan nan nan -0 -0 -0 -0 -0 -0 -0 -0 -0 -0 -0 -0
-0 -0 -0 -0 -0 -0 -0 -0 -0 -0 -0 -0 -0 -0 -0 -0 -0 -0 -0 -0 -0 -0 -0 -0 -0 -0 -0 -0 -0 -0 -0 -0 -0 -0 -0 nan -0 -0 -0 -0 -0 -0 nan nan nan nan nan nan nan nan nan nan nan nan nan nan nan nan nan nan nan nan nan nan nan nan nan nan nan nan nan nan nan nan nan -0 -0 -0 -0 -0 -0 -0 -0 -0 -0 -0
-0 -0 -0 -0 -0 -0 -0 -0 -0 -0 -0 -0 -0 -0 -0 -0 -0 -0 -0 -0 -0 -0 -0 -0 -0 -0 -0 -0 -0 -0 -0 -0 -0 -0 -0 -0 -0 -0 -0 -0 -0 -0 nan nan nan nan nan nan nan nan nan nan nan nan nan nan nan nan nan nan nan nan nan nan nan nan nan nan nan nan nan nan nan nan nan -0 -0 -0 -0 -0 -0 -0 -0 -0 -0 -0
-0 -0 -0 -0 -0 -0 -0 -0 -0 -0 -0 -0 -0 -0 -0 -0 -0 -0 -0 -0 -0 -0 -0 -0 -0 -0 -0 -0 -0 -0 -0 -0 -0 -0 -0 -0 -0 -0 -0 -0 -0 -0 nan nan nan nan nan nan nan nan nan nan nan nan nan nan nan nan nan nan nan nan nan nan nan nan nan nan nan nan nan nan nan nan nan nan nan nan nan nan nan nan -0 -0 -0 -0
-0 -0 -0 -0 -0 -0 -0 -0 -0 -0 -0 -0 -0 -0 -0 -0 -0 -0 -0 -0 -0 -0 -0 -0 -0 -0 -0 -0 -0 -0 -0 -0 -0 -0 -0 -0 -0 -0 -0 -0 -0 -0 -0 -0 -0 nan nan nan nan nan nan nan nan nan nan nan nan nan nan nan nan nan nan nan nan nan nan nan nan nan nan nan nan nan nan nan -0 -0 -0 -0 -0 -0 -0 -0 -0 nan
-0 -0 -0 -0 -0 -0 -0 -0 -0 -0 -0 -0 -0 -0 -0 -0 -0 -0 -0 -0 -0 -0 -0 -0 -0 -0 nan nan -0 -0 -0 -0 -0 -0 -0 nan nan nan -0 -0 -0 -0 -0 -0 -0 -0 -0 -0 -0 nan nan nan nan nan nan nan nan nan nan nan nan nan nan nan nan nan nan nan -0 -0 nan nan nan nan -0 nan -0 -0 -0 -0 -0 -0 -0 -0 -0 -0
-0 -0 -0 -0 -0 -0 -0 -0 -0 -0 -0 -0 -0 -0 -0 -0 -0 -0 -0 -0 -0 -0 -0 -0 -0 -0 -0 -0 -0 -0 -0 -0 -0 -0 -0 nan nan nan -0 -0 -0 -0 -0 -0 -0 -0 -0 -0 -0 -0 nan nan nan nan nan nan nan nan nan nan nan nan nan nan nan nan nan nan nan nan nan nan nan nan -0 -0 -0 -0 -0 -0 -0 -0 -0 -0 -0 -0
-0 -0 -0 -0 -0 -0 -0 -0 -0 -0 -0 -0 -0 -0 -0 -0 -0 -0 -0 -0 -0 -0 -0 -0 -0 -0 -0 -0 -0 -0 -0 -1 -0 -0 -0 -0 nan nan -0 -0 -0 -0 -0 -0 -0 -0 -0 -0 -0 -0 nan nan nan nan nan nan nan nan nan nan nan nan nan nan nan nan nan nan nan nan nan nan -0 -0 -0 -0 -0 -0 -0 -0 -0 -0 -0 -0 -0 -0
-0 -0 -0 -0 -0 -0 -0 -0 -0 -0 -0 -0 -0 -0 -0 -0 -0 -0 -0 -0 -0 -0 -0 -0 -0 -0 -0 -0 -0 -0 -0 -0 -0 -0 -0 -0 nan nan -0 -0 -0 -0 -0 -0 -0 -0 -0 -0 -0 -0 -0 nan nan nan nan nan nan nan nan nan nan nan nan nan nan nan nan nan nan nan nan nan nan nan -0 -0 -0 -0 -0 -0 -0 -0 -0 -0 -0 -0
-0 -0 -0 -0 -0 -0 -0 -0 -0 -0 -0 -0 -0 -0 -0 -0 -0 -0 -0 -0 -0 -0 -0 -0 -0 -0 nan nan -0 -0 -0 -0 -0 -0 -0 nan nan nan -0 -0 -0 -0 -0 -0 -0 -0 -0 -0 -0 -0 -0 -0 nan nan nan nan nan nan nan nan nan nan nan nan nan nan nan nan nan nan nan nan nan nan nan -0 nan nan nan -0 -0 -0 -0 -0 -0 -0
-0 -0 -0 -0 -0 -0 -0 -0 -0 -0 -0 -0 -0 -0 -0 -0 -0 -0 -0 -0 -0 -0 -0 -0 -0 -0 nan nan nan nan -0 -0 -0 -0 -0 -0 -0 -0 -0 -0 -0 -0 -0 -0 -0 -0 -0 -0 -0 -0 -0 -0 -0 -0 nan nan nan nan nan nan nan -0 -0 -0 -0 nan -0 -0 -0 -0 nan nan nan nan nan -0 nan nan nan -0 -0 -0 -0 -0 -0 -0
-0 -0 -0 -0 -0 -0 -0 -0 -0 -0 -0 -0 -0 -0 -0 -0 -0 -0 -0 -0 -0 -0 -0 -0 -0 -0 nan nan nan nan nan -0 -0 -0 -0 -0 -0 -0 -0 -0 -0 -0 -0 -0 -0 -0 -0 -0 -0 -0 -0 -0 -0 -0 -0 nan nan nan -0 -0 -0 nan nan nan nan nan -0 -0 -0 -0 nan nan nan nan nan -0 -0 -0 -0 -0 -0 -0 -0 -0 -0 -0
-0 -0 -0 -0 -0 -0 -0 -0 -0 -0 -0 -0 -0 -0 -0 -0 -0 -0 -0 -0 -0 -0 -0 -0 -0 -0 -0 nan nan nan nan nan -0 -0 -0 -0 -0 -0 -0 -0 -0 -0 -0 -0 -0 -0 -0 -0 -0 -0 -0 -0 -0 -0 -0 nan nan nan nan -0 -0 nan nan nan nan nan nan nan nan nan nan nan -0 -0 -0 -0 -0 -0 -0 -0 -0 -0 -0 -0 -0 -0
-0 -0 -0 -0 -0 -0 -0 -0 -0 -0 -0 -0 -0 -0 -0 -0 -0 -0 -0 -0 -0 -0 -0 -0 -0 -0 nan nan nan nan nan nan nan nan -0 -0 -0 -0 -0 -0 -0 -0 -0 -0 -0 -0 -0 -0 -0 -0 -0 -0 -0 -0 -0 -0 -0 -0 nan nan nan nan -0 -0 -0 nan nan nan nan nan nan nan -0 -0 -0 -0 -0 -0 -0 -0 -0 -0 -0 -0 -0 -0
-0 -0 -0 -0 -0 -0 -0 -0 -0 -0 -0 -0 -0 -0 -0 -0 -0 -0 -0 -0 -0 -0 -0 -0 -0 -0 nan nan nan nan nan nan -0 -0 -0 -0 -0 -0 -0 -0 -0 -0 -0 -0 -0 -0 -0 -0 -0 -0 -0 -0 -0 -0 -0 -0 -0 -0 nan nan nan -0 -0 -0 -0 nan nan nan -0 -0 nan -0 -0 -0 -0 -0 -0 -0 -0 -0 -0 -0 -0 -0 -0 -0
-0 -0 -0 -0 -0 -0 -0 -0 -0 -0 -0 -0 -0 -0 -0 -0 -0 -0 -0 -0 -0 -0 -0 -0 -0 -0 -0 nan nan nan nan nan nan nan -0 -0 -0 -0 -0 -0 -0 -0 -0 -0 -0 -0 -0 -0 -0 -0 -0 -0 -0 -0 -0 -0 -0 -0 -0 -0 -0 -0 -0 -0 -0 nan nan -0 -0 -0 -0 -0 -0 -0 -0 -0 -0 -0 -0 -0 -0 -0 -0 -0 -0 -0
-0 -0 -0 -0 -0 -0 -0 -0 -0 -0 -0 -0 -0 -0 -0 -0 -0 -0 -0 -0 -0 -0 -0 -0 -0 -0 -0 nan nan nan nan nan -0 -0 -0 -0 -0 -0 -0 -0 -0 -0 -0 -0 -0 -0 -0 -0 -0 -0 -0 -0 -0 -0 -0 -0 -0 -0 -0 -0 -0 -0 -0 -0 -0 -0 -0 -0 -0 -0 -0 -0 nan nan nan -0 -0 -0 -0 -0 -0 -0 -0 -0 -0 -0
-0 -0 -0 -0 -0 -0 -0 -0 -0 -0 -0 -0 -0 -0 -0 -0 -0 -0 -0 -0 -0 -0 -0 -0 -0 -0 nan nan nan nan nan nan -0 -0 -0 -0 -0 -0 -0 -0 -0 -0 -0 -0 -0 -0 -0 -0 -0 -0 -0 -0 -0 -0 -0 -0 -0 -0 -0 nan nan nan -0 -0 -0 -0 -0 -0 -0 -0 -0 -0 nan nan nan -0 -0 -0 -0 -0 -0 -0 -0 -0 -0 -0
Wind_Speed
5 5 6 9 9 8 8 12 12 11 10 10 10 10 11 11 11 12 15 15 15 14 13 13 14 16 20 26 28 27 23 18 14 12 10 9 9 9 9 8 8 9 9 10 11 13 15 17 18 21 23 25 27 28 29 28 27 25 24 23 23 23 23 24 24 25 26 26 26 26 26 25 25 24 23 23 22 20 19 18 16 15 13 12 11 10
6 6 6 10 10 9 8 12 13 11 10 10 10 10 11 11 11 10 11 13 14 14 13 13 14 16 19 22 27 30 28 23 18 13 10 9 9 11 11 9 8 7 9 10 10 10 12 14 17 20 23 25 27 28 28 27 26 25 23 23 22 23 23 24 25 26 27 27 27 26 26 25 24 24 23 22 21 20 19 17 15 14 12 11 10 9
7 7 7 8 9 9 8 11 12 11 10 9 10 10 12 12 11 10 10 11 12 12 13 13 13 15 17 19 25 31 31 27 23 17 12 8 8 10 12 11 9 8 9 10 10 11 11 14 16 19 22 24 26 28 28 27 25 24 23 23 23 23 24 25 26 27 27 27 27 26 26 25 24 23 23 22 20 19 18 16 14 13 12 10 9 8
6 7 7 6 7 8 8 9 10 9 9 8 9 10 12 11 10 9 9 10 10 11 11 13 14 14 14 15 21 28 32 31 28 23 17 11 8 7 9 10 10 9 11 12 13 13 14 16 17 19 20 22 24 26 26 26 25 24 23 23 23 24 24 25 26 26 26 27 26 26 26 25 24 23 22 21 20 18 17 15 14 12 11 10 9 8
6 7 7 6 6 6 7 8 8 8 8 8 9 10 10 9 8 8 9 10 10 11 10 12 13 14 12 13 18 24 31 32 32 29 25 19 13 8 6 8 9 10 12 14 16 17 17 18 18 19 19 20 22 24 25 25 25 24 24 24 24 24 25 25 26 26 26 26 26 26 25 25 24 23 21 20 19 17 16 14 13 12 11 10 9 8
6 6 6 6 5 4 5 6 7 8 8 8 8 8 8 8 8 8 9 10 10 10 9 10 11 13 13 14 18 23 28 30 32 32 31 26 21 14 8 7 9 11 13 16 18 19 20 20 20 19 18 18 20 22 24 25 25 24 24 24 25 25 26 26 26 26 27 27 26 26 25 24 23 22 21 19 18 16 15 13 12 11 10 10 9 8
5 5 5 5 5 4 4 5 7 8 8 7 7 8 7 7 8 9 10 10 9 9 9 9 10 12 13 15 18 20 23 26 28 30 31 30 27 23 17 12 10 11 14 17 20 21 22 22 21 20 18 18 19 21 24 25 25 26 26 26 26 27 27 28 28 28 28 27 26 26 25 24 23 21 20 18 17 15 14 12 11 11 10 9 9 8
5 5 6 6 5 5 5 6 7 8 7 7 7 7 8 7 7 8 9 10 10 9 9 9 10 11 12 14 15 17 17 19 20 22 25 26 27 26 24 21 16 13 13 16 18 20 22 22 22 21 20 19 20 22 24 26 26 27 27 28 28 29 29 29 29 29 28 27 26 25 25 23 22 21 19 18 16 15 13 12 11 10 9 9 8 7
6 6 6 6 6 6 6 6 7 8 8 7 7 7 8 8 7 7 8 10 10 10 9 10 10 11 11 12 13 13 14 15 16 17 19 19 21 23 26 26 24 21 17 16 16 17 19 20 21 22 21 21 22 23 25 27 27 28 28 29 29 30 30 31 30 29 28 27 26 25 24 23 22 20 18 17 15 14 12 11 10 9 8 8 7 7
6 6 6 6 6 6 6 6 7 8 9 7 6 6 7 8 8 8 9 9 9 9 9 10 10 11 11 11 11 11 12 14 17 20 21 21 22 24 25 26 26 27 28 26 22 20 18 18 19 21 22 22 23 25 26 28 29 29 29 30 30 30 31 31 30 29 28 27 26 25 24 23 22 20 18 16 15 13 12 10 9 8 8 7 7 7
6 6 5 5 5 5 5 6 6 7 8 7 6 6 7 8 8 8 9 9 9 9 9 9 10 10 10 10 10 10 10 11 13 16 19 22 23 24 24 25 26 29 31 31 30 28 26 23 21 21 21 22 23 24 25 27 29 30 31 31 31 31 30 30 29 29 28 27 26 25 24 23 22 20 18 16 15 14 12 11 10 9 8 8 7 6
5 5 5 5 5 5 6 6 6 6 8 7 7 7 8 8 8 7 8 8 8 8 8 8 9 9 9 9 9 9 9 10 10 11 13 15 17 17 18 19 20 23 25 26 28 29 30 28 26 24 22 21 21 22 23 24 27 29 31 31 31 31 30 29 29 28 27 26 26 25 24 23 21 20 18 16 15 14 13 11 10 9 8 7 7 6
5 4 4 5 5 6 6 7 7 7 8 8 8 8 7 7 7 6 6 7 7 7 7 7 8 8 9 9 9 8 8 9 9 10 11 12 12 12 11 12 13 14 15 17 18 20 25 26 25 24 23 22 22 22 22 23 25 27 29 30 31 30 30 29 28 27 27 26 25 24 23 22 21 19 17 16 15 14 13 11 10 9 8 7 6 6
5 5 5 6 6 6 6 7 7 7 8 7 7 6 5 5 5 6 5 6 5 5 5 7 8 8 8 9 9 9 8 8 8 9 11 11 11 11 10 10 11 11 11 13 13 15 18 18 18 19 22 22 22 23 24 24 25 26 28 29 29 29 29 28 27 26 26 25 24 23 22 21 20 18 17 16 15 14 12 11 9 8 7 6 6 5
5 5 6 6 6 6 6 7 7 7 6 6 5 5 5 6 6 6 6 6 5 4 4 6 7 8 7 8 9 9 8 7 8 9 11 11 11 11 10 10 10 11 11 12 12 13 15 14 13 13 16 20 22 23 25 25 26 27 27 28 28 28 27 27 26 25 25 24 23 22 21 20 19 18 17 16 15 14 12 10 9 7 6 5 5 4
5 5 6 6 6 6 6 6 6 6 6 6 6 6 6 6 6 6 6 5 5 4 4 5 6 7 6 7 8 9 9 8 8 9 11 10 10 10 10 9 10 10 11 11 11 11 11 11 11 12 15 20 24 27 28 27 27 27 26 26 26 26 26 25 25 24 23 22 22 21 20 19 18 18 17 16 15 14 12 9 8 6 5 5 4 4
5 5 5 6 6 6 6 6 6 6 6 6 6 6 6 6 6 5 5 5 5 5 5 5 5 5 4 5 7 9 9 8 7 8 10 10 10 10 10 9 9 10 11 11 10 10 10 10 10 10 13 20 24 27 27 27 26 26 25 24 24 24 23 23 23 23 22 21 20 19 19 18 18 17 17 16 15 13 11 9 7 6 5 4 4 4
5 5 5 6 6 6 6 6 6 6 6 6 6 6 6 6 5 5 5 5 5 5 5 6 5 4 3 4 5 7 9 7 6 7 10 9 9 9 9 8 9 10 10 10 10 9 9 9 10 11 14 21 24 25 25 25 25 24 23 23 22 22 21 21 21 21 20 19 18 18 18 17 17 16 16 15 14 12 10 9 7 6 5 4 4 4
5 5 6 5 5 5 5 6 6 6 6 6 6 6 6 6 6 6 6 6 6 6 6 6 5 4 4 3 4 6 8 6 6 7 9 9 8 8 9 8 8 10 10 10 9 9 8 9 12 16 20 22 23 23 23 23 23 23 22 21 21 20 20 20 20 19 18 17 17 16 16 16 16 15 15 14 12 11 10 8 7 6 5 5 4 4
6 6 6 5 5 5 6 6 6 6 6 6 5 5 5 5 6 6 6 6 6 6 5 6 5 5 4 3 4 6 7 5 5 6 8 8 7 7 8 8 8 9 10 9 8 8 8 8 10 13 18 20 21 22 22 22 21 21 21 20 19 19 19 18 18 17 17 16 15 15 15 15 14 14 13 12 11 10 9 8 7 6 6 5 5 4
6 6 6 5 5 5 5 5 6 6 6 6 5 5 5 5 5 6 5 5 5 5 6 6 5 4 3 3 4 5 6 5 4 4 5 6 6 6 7 7 8 9 9 8 8 8 7 7 7 9 14 17 19 20 20 20 20 20 19 19 18 18 17 17 16 16 15 14 14 13 14 13 13 13 12 11 10 10 9 8 7 7 6 5 5 4
5 5 6 6 5 5 4 5 6 7 7 7 6 5 5 5 5 5 5 5 5 5 6 5 4 4 3 4 4 5 6 5 4 4 4 5 6 7 6 6 6 8 9 8 7 7 7 7 7 9 14 18 19 19 19 19 19 19 18 18 17 16 16 15 15 14 13 12 12 12 12 12 12 12 11 10 10 9 8 8 7 7 6 5 5 5
5 5 5 6 5 5 4 5 5 5 6 6 6 5 4 4 4 4 4 4 4 4 5 4 4 3 4 4 4 5 6 5 4 3 4 5 5 5 5 5 5 7 8 7 6 7 7 7 7 8 12 18 19 18 18 18 18 17 17 16 16 15 14 14 13 13 12 11 11 11 11 11 11 11 10 9 9 9 8 8 7 7 6 5 5 5
6 6 5 5 5 5 5 5 4 4 4 4 4 4 4 4 3 3 3 3 3 3 3 3 4 4 5 5 5 6 6 6 5 3 4 5 4 4 4 4 5 7 7 6 5 5 6 6 6 7 8 14 17 17 17 17 16 16 15 15 14 14 13 13 12 11 11 10 9 9 9 10 10 10 9 9 9 8 8 8 7 6 6 5 5 4
6 6 6 7 7 8 7 6 6 5 4 3 3 3 3 3 3 2 2 2 2 2 2 3 4 5 4 5 5 6 6 6 5 4 4 4 3 3 3 4 4 5 5 4 4 5 5 6 6 6 7 10 14 16 16 15 15 14 14 13 12 12 11 11 10 10 9 8 8 8 8 9 9 9 9 9 9 8 8 8 7 6 6 5 5 4
9 9 10 11 12 13 12 11 10 10 8 6 4 3 2 1 1 2 2 2 2 2 3 4 5 5 4 4 5 5 5 6 6 5 4 3 3 3 3 3 4 4 4 4 4 4 5 5 5 6 6 8 11 14 15 15 14 13 13 12 11 10 10 9 9 8 8 7 7 7 8 8 9 9 9 9 9 8 8 7 7 6 5 4 4 3
13 13 14 14 14 14 14 14 14 14 13 11 9 7 4 2 2 3 4 4 3 3 3 4 5 5 4 4 4 4 4 5 5 5 4 3 3 3 3 3 3 3 4 3 4 4 5 5 5 5 6 6 7 10 14 15 14 13 12 11 10 10 9 8 8 8 7 7 7 7 8 9 9 9 9 9 8 8 8 7 6 5 4 3 3 3
13 13 13 14 14 14 14 14 15 15 16 15 14 11 7 4 4 5 5 4 4 4 4 5 4 4 4 4 4 3 3 4 4 4 3 3 3 3 2 2 2 2 3 2 3 4 6 5 5 5 5 5 6 7 11 13 13 13 12 12 11 11 10 9 9 8 8 8 8 8 9 9 8 8 8 8 8 8 7 6 5 4 3 2 2 2
11 12 12 13 13 13 13 13 13 14 16 16 15 13 9 6 6 5 4 4 4 4 5 5 4 4 3 3 3 3 3 3 3 3 2 2 3 2 1 2 2 2 2 1 2 3 4 4 4 4 4 5 5 5 6 9 10 10 10 11 11 11 11 10 10 10 9 9 9 9 9 9 8 8 8 8 8 8 7 6 5 3 2 1 1 1
9 10 11 11 11 11 11 10 11 12 14 15 15 13 10 7 6 5 4 4 4 5 5 4 4 3 2 2 2 3 3 3 3 3 2 2 2 1 1 1 2 2 2 1 1 1 2 3 3 4 4 5 5 4 4 5 6 6 6 8 8 9 10 10 10 9 10 10 10 9 9 9 8 8 8 8 8 7 7 6 4 3 2 1 1 1
8 8 8 9 9 8 8 8 8 9 11 12 12 11 10 8 6 6 5 5 5 5 5 4 3 3 2 1 2 2 2 2 2 2 2 2 2 1 1 1 1 2 1 1 1 1 1 1 2 3 3 4 4 4 4 4 4 4 4 4 5 6 8 8 8 8 8 9 9 9 9 9 9 9 8 8 8 7 6 6 4 3 2 1 1 1
6 6 6 6 7 7 7 7 7 7 8 9 9 9 9 8 7 6 6 6 5 5 4 4 4 4 3 3 3 3 2 2 2 2 2 1 1 1 1 1 1 1 1 1 1 1 1 1 1 1 2 2 3 3 3 3 3 3 3 3 3 4 6 6 6 6 6 6 7 8 8 9 9 9 8 8 8 7 6 6 5 3 2 1 1 1
5 5 5 5 6 6 6 6 6 6 7 7 7 7 7 7 7 7 7 6 6 6 5 5 5 4 4 4 4 3 3 2 2 3 2 2 1 1 1 1 1 1 1 2 2 2 2 1 1 1 1 2 2 2 3 3 3 3 3 3 3 3 5 5 5 4 4 4 5 6 7 7 8 8 8 8 7 7 6 6 5 4 2 1 1 1
4 5 5 5 5 6 6 6 7 7 6 6 7 7 6 6 6 7 7 6 6 6 6 6 6 5 4 4 4 4 3 3 3 3 3 2 1 1 1 1 1 1 1 2 2 2 2 2 1 1 1 1 1 2 2 3 3 3 3 3 3 3 3 4 4 3 3 3 3 3 4 5 6 6 7 7 7 6 6 6 5 5 4 2 1 1
5 5 5 5 6 6 6 6 7 7 6 6 6 6 6 6 6 6 6 6 6 6 6 6 6 6 5 4 3 3 3 3 3 3 3 2 2 1 1 1 1 1 2 2 2 2 2 2 2 2 1 1 1 1 2 2 2 2 3 3 3 3 3 3 3 3 3 3 3 3 3 3 3 4 5 5 5 5 5 5 5 5 5 4 3 2
5 5 5 5 5 5 6 6 6 6 6 6 6 6 6 6 6 5 5 5 5 6 6 6 6 6 5 5 4 4 4 3 3 4 4 3 2 1 1 1 1 2 2 2 2 2 2 2 2 2 2 1 1 1 1 1 2 2 2 3 3 3 3 3 3 3 3 3 3 3 3 3 3 3 3 4 4 4 4 4 5 5 5 5 5 4
5 5 5 5 5 5 5 5 5 5 5 5 5 5 5 5 5 5 5 5 5 5 6 6 7 7 7 6 6 5 4 4 4 5 5 4 3 2 2 2 2 2 2 2 2 2 2 2 1 1 2 2 1 1 1 1 1 2 2 2 3 3 3 3 3 3 3 3 3 3 3 3 3 3 3 3 3 3 3 3 4 4 5 5 5 5
5 5 5 5 4 4 4 4 4 4 4 4 4 4 5 5 5 5 4 5 5 5 5 5 6 7 9 9 8 7 6 6 6 6 6 5 4 3 2 2 2 2 2 2 2 1 1 1 1 1 1 1 1 1 1 1 1 2 2 2 2 2 3 3 3 3 3 3 3 3 3 3 3 3 3 3 2 2 2 2 2 3 3 4 4 5
4 4 4 4 4 4 4 4 4 3 3 3 3 3 3 4 4 4 4 4 5 5 6 5 5 6 7 7 8 8 7 7 7 7 7 5 4 3 3 2 2 2 2 2 1 1 1 1 1 1 1 1 1 1 1 1 1 1 1 1 1 2 2 3 3 3 3 3 3 3 3 3 3 3 3 3 3 3 2 2 2 2 2 2 2 3
4 3 4 4 3 3 3 3 3 3 3 3 3 3 3 3 3 3 3 3 4 4 5 5 5 5 5 6 7 7 7 6 6 6 6 5 4 3 3 3 2 2 2 1 2 2 2 1 1 1 1 1 1 1 1 1 0 0 0 0 1 2 2 2 2 3 2 3 3 3 3 3 3 3 3 3 3 3 3 2 2 3 3 2 2 2
3 3 3 3 3 3 3 2 2 2 3 3 3 3 3 2 2 2 3 3 4 4 3 3 4 4 4 5 6 6 6 5 6 6 5 5 5 4 3 3 2 2 2 1 1 2 2 2 2 1 1 1 1 2 2 2 1 1 0 1 1 1 1 2 2 2 2 2 3 3 3 3 3 3 3 3 3 3 2 2 2 3 3 3 2 2
3 3 3 2 2 2 2 2 2 2 2 3 3 3 3 3 3 3 3 3 3 3 3 3 2 3 3 4 4 5 5 5 5 6 5 6 5 4 4 3 3 2 2 1 1 2 2 2 2 1 1 1 1 1 2 2 2 1 1 0 0 0 1 2 2 2 2 2 2 3 3 3 3 3 3 3 3 2 3 3 3 3 3 3 2 2
3 2 2 2 2 2 2 2 2 2 2 3 3 3 3 3 3 3 3 3 3 3 3 3 2 2 2 3 3 4 4 5 5 6 6 5 5 5 5 4 3 3 2 2 2 2 2 2 2 2 2 1 0 1 2 2 2 2 1 1 1 1 0 1 2 2 2 2 2 2 2 2 2 2 2 2 2 2 3 3 3 4 3 3 3 3
2 2 1 1 1 1 1 1 2 2 2 3 3 3 3 3 3 3 3 3 3 3 3 3 2 2 2 3 3 3 3 4 5 6 6 6 6 6 5 5 4 4 3 3 2 2 2 2 2 2 2 1 1 0 1 2 2 2 2 1 0 1 1 1 1 2 2 2 2 2 2 2 2 2 1 2 2 2 2 2 3 3 3 3 3 3
1 1 1 1 1 1 2 2 2 2 2 2 2 3 3 3 3 3 3 3 3 3 3 3 2 2 2 2 2 2 2 2 3 4 4 6 6 6 5 5 4 4 4 4 3 3 2 2 2 2 1 1 1 1 0 1 1 2 2 1 1 1 2 2 2 2 2 2 2 2 2 2 1 1 1 2 2 2 2 3 3 3 3 3 3 3
2 2 2 2 2 2 2 2 2 2 2 2 2 2 2 3 3 3 3 3 3 2 2 2 2 2 2 2 2 2 2 2 2 3 3 4 5 5 5 5 4 4 4 4 4 4 3 3 3 2 1 1 1 1 0 0 1 1 2 1 1 1 1 1 2 2 2 2 2 2 3 2 1 1 2 2 2 2 2 3 3 3 3 3 3 3
2 2 2 2 2 2 2 2 2 2 2 2 2 2 2 2 2 2 2 2 2 2 2 2 2 3 3 2 2 2 2 2 2 2 3 3 3 4 4 4 4 4 4 4 4 4 4 4 3 3 2 1 1 0 0 0 0 1 1 1 1 1 1 1 1 2 2 2 2 2 3 2 1 1 2 2 2 2 2 2 3 3 3 3 3 3
3 3 3 2 2 2 2 2 2 2 2 2 2 2 2 3 3 2 2 2 2 2 2 2 2 2 2 2 2 2 2 2 2 2 2 2 3 3 3 2 2 3 3 4 4 4 4 4 4 4 3 3 2 1 0 0 0 1 1 1 1 1 1 1 1 1 1 1 2 2 2 2 1 1 2 2 2 2 2 2 2 3 3 3 3 3
2 2 3 3 3 3 3 3 3 2 2 2 2 2 2 3 3 3 2 2 2 2 2 2 2 2 2 2 1 1 1 1 1 2 2 2 2 2 2 1 1 2 2 3 3 3 3 3 4 4 4 3 3 2 1 0 0 1 1 1 1 1 1 1 2 1 1 1 1 1 2 1 1 1 1 1 2 2 2 2 2 3 3 3 3 3
2 2 2 2 2 2 2 2 2 2 3 3 3 2 2 2 2 2 2 2 2 2 2 2 2 2 2 2 1 1 1 1 1 1 2 1 1 1 1 1 1 1 1 2 2 2 2 2 3 3 4 4 4 3 2 0 1 1 1 1 0 0 1 1 1 1 1 1 1 1 1 1 1 1 1 1 2 2 2 2 2 3 3 3 3 3
2 2 2 2 2 2 2 2 2 2 2 2 2 2 2 2 2 2 2 2 2 2 2 2 2 2 2 2 2 2 2 1 1 1 1 1 1 1 1 0 0 0 0 1 1 1 1 1 1 2 4 4 4 4 2 1 1 1 2 1 0 0 0 1 1 1 1 1 1 1 1 1 1 1 1 1 2 2 2 2 2 3 3 3 3 3
Wind_Direction
352 348 345 355 359 1 2 360 358 357 0 3 3 1 358 359 2 5 8 12 13 13 9 8 9 13 17 20 21 22 23 28 37 52 69 84 97 105 109 107 97 87 86 100 116 129 138 146 149 149 148 147 147 146 146 146 147 147 147 146 146 145 144 142 139 136 132 130 127 126 124 123 121 119 116 115 113 112 111 111 111 112 113 114 115 115
354 352 351 360 4 6 3 1 360 359 359 3 5 4 2 3 3 4 5 10 14 15 12 9 11 15 19 20 22 23 25 27 31 39 55 79 102 117 124 125 111 90 81 87 101 117 131 140 144 146 147 147 147 146 146 145 144 143 142 141 141 141 139 137 134 131 128 126 124 123 121 119 117 115 113 112 111 111 111 111 112 114 115 116 116 116
354 353 354 358 4 7 5 360 358 356 356 0 4 7 7 7 6 5 4 7 11 14 15 12 13 16 19 20 22 24 26 28 29 31 37 58 92 116 128 133 125 104 92 95 104 115 124 131 136 140 143 145 145 145 143 141 140 138 137 136 135 135 133 131 129 127 125 123 122 120 117 115 113 112 111 111 110 111 111 113 114 116 117 118 118 120
358 356 352 351 -0 7 8 1 356 352 351 356 4 10 14 13 10 7 5 7 10 13 15 15 17 19 19 18 21 24 27 30 31 30 29 36 59 98 124 132 126 114 106 108 113 118 121 124 127 131 135 139 140 139 137 135 133 131 131 130 130 129 128 126 124 123 121 119 118 116 114 113 111 111 111 111 111 112 113 115 117 119 122 124 127 129
2 359 352 349 355 2 6 3 357 353 352 357 4 11 18 18 14 10 8 10 12 14 15 17 19 21 21 18 19 23 28 31 32 32 30 31 37 57 102 123 123 117 114 115 117 119 119 119 119 121 125 128 130 130 128 126 125 124 125 125 125 124 123 121 119 117 116 115 114 113 112 112 111 111 112 112 113 114 116 119 123 126 131 134 137 139
4 2 354 353 354 356 359 3 1 358 357 0 5 10 17 20 19 17 14 13 13 13 15 17 20 23 24 20 20 22 27 30 32 33 33 32 34 39 59 95 115 121 120 120 120 120 119 117 116 116 118 120 121 121 120 119 119 120 121 122 121 120 118 116 114 113 112 111 111 111 112 112 112 112 113 114 115 117 120 125 130 134 139 141 142 141
3 4 0 358 356 356 0 6 5 3 2 2 3 6 12 19 23 23 21 18 15 13 14 18 22 24 25 22 20 21 25 29 32 33 33 34 35 37 43 61 92 115 122 123 123 122 121 119 118 117 118 118 119 119 118 119 120 121 121 120 118 116 114 113 111 110 110 110 110 111 111 112 112 113 114 116 118 121 125 130 135 138 141 141 140 136
3 4 7 3 360 358 3 7 7 5 4 4 5 5 6 12 20 25 25 24 21 19 16 18 21 24 25 22 20 21 24 28 30 32 33 34 36 38 41 47 60 81 104 116 120 122 123 122 122 121 121 121 121 120 120 121 121 121 120 118 116 115 113 112 111 110 110 110 111 111 111 112 113 114 115 117 120 123 127 131 134 136 137 135 132 128
7 6 8 7 5 2 0 4 4 3 2 6 9 9 7 9 14 21 25 26 25 23 20 20 20 22 22 21 21 22 25 30 32 33 34 35 37 40 42 45 49 55 64 78 92 104 114 118 120 121 122 121 121 121 121 120 120 119 118 116 115 113 112 111 111 110 111 111 112 112 112 112 112 112 113 114 116 117 119 121 123 124 125 122 119 116
11 9 7 8 8 6 3 1 359 359 359 4 12 17 15 12 13 18 24 26 26 26 26 25 23 20 18 18 20 23 25 31 35 37 38 38 40 43 45 47 48 50 51 54 59 66 78 92 104 112 115 116 118 119 119 118 118 117 116 114 113 112 111 111 111 111 112 112 112 112 112 111 111 110 109 108 107 106 104 103 103 103 103 103 102 101
12 11 10 8 8 8 7 3 359 358 358 3 12 21 24 18 16 19 25 26 26 26 28 29 27 23 17 15 16 20 24 28 31 34 36 37 40 42 44 46 48 50 50 50 51 52 55 64 74 86 96 103 108 112 114 116 116 116 115 113 112 111 110 110 111 111 112 113 113 113 112 111 110 109 108 106 104 100 96 93 90 87 87 85 85 85
11 11 13 11 9 7 6 4 3 3 5 7 11 15 19 14 14 20 30 29 28 27 29 31 30 27 23 16 13 15 23 27 29 31 32 34 35 37 40 42 45 47 48 49 49 50 51 54 59 65 74 82 90 97 103 108 110 112 112 111 110 109 109 110 110 111 112 112 112 112 112 112 112 112 113 111 107 103 97 92 88 84 81 78 76 75
14 14 16 17 15 12 7 5 5 7 10 12 12 11 7 2 3 13 31 35 33 31 33 36 35 32 27 20 14 13 20 27 31 33 35 33 31 31 35 39 41 42 45 47 47 47 49 52 55 59 64 70 77 83 88 93 98 102 105 106 106 107 107 108 109 110 110 111 111 112 112 113 114 116 117 114 111 106 99 94 90 85 82 78 75 72
16 15 19 21 20 16 10 8 8 10 11 11 9 5 357 353 356 5 21 30 30 30 39 47 45 38 29 22 16 11 15 25 32 37 40 35 29 27 32 40 42 42 45 48 47 45 45 49 53 57 61 67 73 78 81 84 87 91 94 98 100 102 104 105 106 107 108 109 110 111 112 114 115 116 116 113 109 104 98 94 91 87 84 81 78 76
17 17 23 24 21 17 11 8 8 9 8 5 3 1 358 0 2 7 15 17 14 15 32 50 52 48 38 28 17 9 9 22 34 40 42 35 27 23 27 40 44 45 46 49 48 45 42 46 50 55 59 65 70 75 77 79 81 83 86 90 94 97 100 102 104 105 107 108 109 111 112 114 114 114 112 108 104 99 94 91 89 88 86 86 84 83
20 22 26 26 23 19 12 8 6 5 2 1 3 6 10 10 9 9 12 8 4 5 20 38 47 48 41 31 20 12 7 19 33 43 47 37 25 17 20 36 45 47 47 49 48 45 42 46 50 56 61 67 70 73 75 76 78 79 82 86 90 94 97 100 102 104 106 107 109 111 112 113 113 111 109 105 102 98 94 92 90 90 90 92 92 90
24 25 26 27 25 20 12 8 5 2 359 2 7 12 18 16 13 12 13 10 12 16 21 29 38 41 34 23 15 10 5 16 31 45 51 42 26 13 12 31 44 49 48 48 47 45 44 46 49 54 62 66 70 73 75 76 78 79 81 84 87 91 95 98 101 103 105 107 109 111 112 112 111 110 107 105 104 103 103 102 102 101 100 100 99 95
29 27 25 27 26 22 15 10 5 1 357 3 8 14 20 21 20 20 21 22 25 29 29 32 35 38 36 19 4 357 356 9 29 46 53 45 30 14 10 26 41 48 49 45 42 40 43 46 49 54 63 68 71 74 76 79 80 81 82 84 86 89 92 95 98 100 102 105 107 108 109 109 109 108 107 107 108 110 113 114 115 114 110 107 103 97
33 29 25 25 24 22 20 14 7 360 355 357 3 12 19 22 25 27 30 30 33 36 40 42 41 40 42 28 358 345 347 1 30 49 55 48 32 16 11 25 39 47 48 42 36 34 38 47 54 59 63 67 70 73 77 79 81 82 84 85 86 88 90 92 94 96 99 101 104 105 106 106 106 107 107 108 110 112 115 115 115 113 109 106 101 96
39 35 28 21 20 22 23 17 9 0 353 349 357 12 25 27 30 32 34 34 36 39 45 51 47 40 35 21 359 347 344 353 26 53 58 52 38 21 13 24 38 47 48 38 29 23 28 41 53 59 62 65 68 71 75 77 80 82 83 84 86 87 89 91 92 94 97 100 102 104 105 105 105 105 106 107 108 109 110 109 108 105 103 100 97 94
44 39 30 22 22 24 24 16 8 1 354 353 3 20 32 34 36 37 36 39 40 42 47 51 48 39 30 22 6 355 348 354 20 50 61 54 41 26 15 23 37 47 49 38 27 20 21 32 44 55 59 63 66 69 72 75 77 79 81 82 84 86 88 90 92 94 96 99 101 102 102 102 102 102 103 103 103 103 103 102 100 98 97 95 93 90
46 41 32 29 30 31 27 18 12 8 5 10 18 27 32 37 40 41 40 43 47 51 54 57 55 50 43 35 19 5 359 3 18 43 66 55 42 27 12 21 37 47 49 38 27 21 20 25 38 53 61 63 65 67 69 72 74 76 78 80 81 83 85 87 88 90 92 94 96 97 97 98 98 98 99 99 98 98 97 95 94 93 91 90 88 86
46 42 35 33 33 33 31 27 21 18 17 24 30 34 34 40 46 49 48 53 59 65 71 77 78 71 58 46 32 19 12 8 12 33 67 62 47 27 8 18 38 49 50 39 29 24 25 28 31 42 55 61 63 65 67 70 72 74 76 78 79 80 82 83 84 86 87 88 90 92 93 95 96 96 96 96 95 94 93 91 89 88 86 85 83 82
42 39 35 32 30 29 30 30 27 24 24 32 38 42 45 50 56 61 66 71 78 84 90 91 82 68 52 43 35 26 17 9 12 33 70 71 59 35 8 20 42 53 52 40 32 29 32 32 27 27 38 51 57 61 65 68 70 73 75 76 78 80 81 82 83 85 86 88 91 93 95 97 97 96 95 93 91 89 88 87 85 84 82 82 81 81
36 35 33 31 30 30 32 33 30 26 21 24 33 46 56 67 74 80 80 78 82 85 86 75 64 56 45 39 35 29 18 11 14 32 72 79 69 47 20 25 44 57 58 45 37 35 38 34 28 24 27 38 46 52 58 63 68 71 74 76 79 81 84 86 89 91 94 97 100 101 101 100 99 96 93 90 87 85 83 83 83 83 83 83 83 83
37 36 35 34 34 34 36 36 34 30 23 16 10 7 9 48 75 76 60 46 42 49 63 62 59 54 48 45 41 34 22 15 17 28 57 79 80 61 31 29 45 59 64 51 40 37 42 38 31 26 26 28 35 40 46 51 58 64 69 73 76 81 87 91 96 102 104 108 108 106 101 98 95 92 89 86 84 82 81 81 82 84 86 89 90 89
40 39 38 36 36 36 37 37 35 32 27 21 13 3 347 4 40 51 45 33 25 31 51 58 60 57 53 51 48 41 29 24 23 25 36 68 79 69 39 31 44 59 67 56 45 42 46 42 34 28 27 23 23 27 33 37 42 48 54 58 64 70 76 83 91 97 98 99 98 95 91 90 88 87 86 84 81 79 78 79 80 83 89 97 101 101
39 39 38 36 35 35 36 36 34 31 27 23 17 12 5 19 40 47 42 30 28 37 50 56 59 60 58 59 58 55 45 37 28 21 20 55 70 68 48 32 36 49 62 61 53 48 49 43 35 27 23 21 20 21 24 26 29 32 34 39 45 50 56 62 69 74 77 78 78 79 79 80 80 81 81 79 77 76 74 74 76 80 89 100 110 115
35 36 36 34 33 33 34 35 33 30 26 23 21 19 18 27 37 42 35 30 38 49 55 56 60 65 73 80 84 78 63 48 29 13 9 55 71 72 59 37 27 27 39 61 64 56 50 42 33 25 20 20 21 20 18 18 19 19 19 24 30 36 41 46 52 58 61 63 65 67 69 70 71 72 72 72 71 69 67 65 66 69 77 81 87 96
28 29 30 29 29 29 31 32 31 29 27 25 24 24 24 27 29 29 20 25 40 53 58 57 59 64 79 98 99 87 69 53 28 7 4 57 75 80 72 47 28 17 6 24 66 68 57 44 34 25 19 20 22 23 19 16 12 9 6 11 18 25 30 34 41 48 52 54 55 57 58 60 61 62 63 63 62 61 58 55 53 52 50 57 72 83
27 27 26 24 24 25 26 28 28 27 27 27 26 26 26 25 23 19 13 19 31 43 51 52 50 46 39 57 72 74 71 56 31 10 1 56 79 88 89 60 40 19 353 341 19 75 79 54 35 24 18 21 23 25 23 19 13 8 1 3 8 14 17 21 29 38 45 47 48 49 50 51 52 52 54 55 55 54 51 45 42 39 37 41 65 80
32 30 28 24 23 23 24 25 26 26 27 27 27 26 26 25 22 18 14 14 18 24 33 38 40 40 35 39 49 59 65 57 32 13 9 58 85 90 83 66 49 29 4 349 11 50 86 76 48 26 18 23 25 24 21 18 15 10 2 4 5 6 6 9 16 27 36 41 42 44 44 45 45 45 46 48 49 48 44 37 32 28 25 31 56 75
38 36 32 30 28 28 27 26 26 26 26 27 26 25 24 25 23 21 17 15 13 14 15 21 28 35 43 52 57 60 62 55 32 14 11 51 83 96 83 68 53 39 33 25 32 47 72 79 76 56 35 36 31 24 18 14 12 9 4 7 8 5 2 2 5 11 18 27 33 37 39 40 40 40 40 41 42 42 40 32 25 17 11 21 47 71
43 39 36 35 34 32 30 28 28 27 26 25 24 23 22 23 24 24 21 18 17 17 16 15 16 20 30 52 65 70 67 57 35 17 8 37 71 96 97 73 53 37 37 44 50 58 72 74 80 85 71 61 51 39 24 13 9 7 6 9 11 10 4 1 0 0 3 12 19 26 30 35 37 37 37 36 36 36 36 30 22 15 15 21 35 55
47 42 37 35 34 33 31 29 28 27 25 22 20 20 20 22 24 25 24 22 23 24 25 22 18 14 14 31 54 70 71 59 37 19 11 29 55 87 94 73 48 31 35 48 56 63 72 64 64 69 81 77 67 54 39 17 8 5 8 13 18 18 12 4 359 355 356 7 17 21 23 27 31 34 34 30 29 29 30 28 24 21 23 27 33 38
49 44 38 33 30 30 31 28 27 26 25 20 16 14 17 19 22 24 25 25 27 31 36 33 28 22 16 24 40 56 67 60 41 25 16 17 30 60 81 71 51 36 33 46 57 67 73 63 56 55 62 67 64 54 40 21 13 11 14 15 19 21 17 9 1 355 355 9 19 22 20 24 26 29 30 23 20 22 25 29 29 29 32 37 39 39
51 45 39 31 27 26 28 27 25 23 22 18 14 12 14 17 20 22 26 27 29 34 42 44 41 37 32 36 43 50 56 54 44 33 23 15 17 35 67 73 65 49 35 47 62 75 84 79 71 61 56 54 52 45 28 13 15 19 18 16 17 18 16 10 4 0 357 12 21 24 18 20 21 22 23 16 13 16 26 32 35 38 40 45 46 42
49 43 36 28 24 22 24 25 23 20 16 13 10 9 11 15 18 21 27 32 34 38 45 48 49 47 44 48 51 53 52 48 43 36 27 17 17 30 57 72 72 60 39 39 51 73 90 90 87 82 74 62 57 48 37 16 17 20 16 17 22 26 22 14 9 5 2 9 18 24 22 18 17 17 16 9 4 9 28 34 38 42 45 50 51 47
43 38 32 27 22 20 21 21 17 10 5 5 4 3 6 13 18 21 27 35 41 46 51 56 58 57 53 53 54 54 51 46 41 34 24 14 12 20 41 59 69 68 48 25 16 18 40 66 76 85 92 95 92 84 68 44 27 21 12 15 30 37 32 21 14 9 7 4 11 20 25 19 19 19 19 14 10 10 16 16 19 20 20 31 49 54
39 37 35 28 22 18 21 13 4 356 351 350 350 352 359 11 20 24 28 36 42 48 54 61 66 67 64 61 58 54 50 44 38 32 23 13 9 13 26 41 55 65 62 30 6 357 1 34 55 71 83 103 114 124 141 150 136 75 344 18 32 33 29 27 20 13 12 8 10 15 21 21 23 25 27 24 20 15 10 6 7 11 9 4 10 25
36 34 35 26 17 13 19 1 349 345 343 342 347 353 1 8 15 22 31 35 38 39 40 51 63 70 70 65 60 56 52 49 44 39 30 20 14 13 24 32 43 57 70 54 22 1 2 24 47 65 73 92 111 129 145 154 162 167 219 36 32 30 33 41 33 22 15 17 15 14 15 20 25 29 30 30 25 15 3 1 7 15 17 11 7 5
39 32 27 14 6 3 2 348 345 346 347 355 3 7 6 7 12 20 27 32 32 29 21 22 35 54 67 67 61 55 49 48 47 45 41 28 20 17 28 30 31 34 47 55 46 28 17 18 31 54 69 87 115 134 143 151 159 164 146 95 85 99 93 70 53 36 22 28 24 17 14 17 20 22 24 28 21 9 358 4 12 20 22 17 14 9
39 33 20 8 1 357 349 348 349 355 4 15 19 16 8 5 8 14 26 33 33 28 20 12 12 26 51 57 57 54 49 45 43 43 42 35 30 28 32 33 28 19 13 25 38 42 32 21 27 37 40 33 98 133 135 149 165 175 177 178 195 199 128 69 50 35 29 37 35 28 20 15 8 3 8 22 20 10 3 9 15 21 23 17 11 7
34 26 13 4 357 354 6 16 13 12 20 28 28 21 11 5 6 11 23 33 33 27 17 3 355 6 46 54 54 51 53 48 44 42 41 37 35 34 33 34 31 24 16 19 22 26 28 38 47 45 18 344 331 117 138 156 166 171 168 176 273 346 26 43 35 24 22 34 38 33 22 9 348 335 353 33 30 18 11 12 16 19 19 14 8 4
29 18 13 12 12 19 37 36 31 28 33 37 33 25 12 7 7 13 24 31 31 26 13 355 344 354 42 54 53 50 50 53 51 48 44 39 36 35 34 35 34 33 32 29 22 12 4 18 43 55 34 344 339 0 110 155 163 161 151 144 70 35 42 41 31 18 12 21 24 19 6 351 334 331 37 52 44 30 19 17 18 17 15 10 7 5
26 16 15 16 19 24 29 26 25 29 38 43 39 31 17 10 12 19 25 27 27 24 13 356 354 6 31 39 43 44 40 44 52 54 50 41 37 34 34 35 35 37 41 39 33 23 14 9 14 26 38 2 350 356 351 173 170 166 159 156 128 85 71 59 41 24 8 5 2 356 346 334 333 18 69 65 54 40 30 22 20 18 14 9 7 5
23 16 12 11 14 20 25 21 19 21 32 43 45 39 25 16 15 20 25 23 24 21 15 10 16 24 27 21 24 29 33 28 36 48 52 46 42 40 38 39 42 46 50 51 48 43 37 22 12 5 354 341 335 344 9 248 200 183 169 165 155 134 112 84 60 37 10 1 352 345 337 335 4 73 83 77 65 50 38 28 22 20 17 11 8 6
21 17 12 8 7 11 17 17 14 12 15 35 47 50 38 22 14 13 20 19 17 15 9 22 33 38 35 24 22 26 34 30 33 41 47 47 46 46 46 47 52 58 64 66 64 60 55 43 29 14 354 341 335 336 24 196 206 197 179 174 170 159 134 99 78 51 18 6 354 347 343 353 27 66 85 90 80 64 46 33 25 20 18 13 10 10
18 19 14 9 6 7 10 11 8 6 4 13 28 43 47 28 13 6 9 14 12 7 359 9 23 33 35 30 28 30 36 38 43 48 51 48 47 49 54 60 69 78 84 85 85 82 79 68 55 39 18 359 347 338 328 179 177 187 190 185 183 166 136 104 85 62 28 11 2 2 9 16 18 21 45 90 90 79 62 45 33 26 21 18 18 20
16 18 15 7 2 1 3 4 4 3 4 5 9 17 30 26 15 6 2 6 9 5 358 0 5 11 18 17 16 19 23 27 41 55 63 55 48 44 51 60 76 94 102 103 105 108 114 105 91 73 52 30 6 345 327 317 167 175 189 190 189 145 121 102 87 65 28 11 12 24 40 35 16 0 10 88 95 91 77 59 44 34 26 24 26 31
10 11 10 1 355 350 350 353 355 356 1 2 4 5 9 10 8 2 358 2 4 5 6 1 358 358 0 0 3 7 10 10 24 48 66 59 46 25 21 6 0 18 71 81 86 95 123 141 131 109 86 58 30 2 335 314 200 184 190 183 168 51 71 90 82 62 23 10 21 45 54 48 32 18 9 85 100 99 86 71 55 43 34 30 32 37